AFR4 SBGR-SUMU

Flight info

Callsign AFR4
Flight time 1h 13m
Altitude 36000
Route UBSOD UZ38 UMDEX DCT CXS DCT NIGRO UM792 CRR
Aircraft A320/M-SDE3FGHIRWY/LB1

Departure

Time 2026-04-25 23:54
Airport São Paulo/Guarulhos–Governor André Franco Montoro International Airport (SBGR)

Arrival

Time 2026-04-26 01:08
Airport Carrasco General Cesáreo L. Berisso International Airport (SUMU)
Time Latitude Longitude Altitude Speed Heading
2026-04-25 23:29 -23.42928 -46.47993 2474 ft 0 kts 20°
2026-04-25 23:40 -23.42932 -46.47995 2473 ft 3 kts 19°
2026-04-25 23:41 -23.42958 -46.48003 2473 ft 4 kts
2026-04-25 23:41 -23.42983 -46.48003 2473 ft 4 kts 332°
2026-04-25 23:41 -23.42994 -46.47990 2473 ft 2 kts 254°
2026-04-25 23:41 -23.42993 -46.47988 2473 ft 0 kts 253°
2026-04-25 23:44 -23.42994 -46.47990 2473 ft 2 kts 253°
2026-04-25 23:44 -23.43011 -46.48052 2473 ft 11 kts 253°
2026-04-25 23:44 -23.43042 -46.48123 2474 ft 10 kts 201°
2026-04-25 23:44 -23.43121 -46.48118 2474 ft 13 kts 171°
2026-04-25 23:45 -23.43197 -46.48131 2474 ft 12 kts 233°
2026-04-25 23:45 -23.43236 -46.48266 2474 ft 21 kts 253°
2026-04-25 23:45 -23.43302 -46.48349 2475 ft 2 kts 197°
2026-04-25 23:45 -23.43304 -46.48350 2475 ft 0 kts 196°
2026-04-25 23:49 -23.43312 -46.48352 2475 ft 7 kts 195°
2026-04-25 23:50 -23.43381 -46.48338 2474 ft 12 kts 162°
2026-04-25 23:50 -23.43406 -46.48253 2473 ft 13 kts 74°
2026-04-25 23:50 -23.43402 -46.48238 2473 ft 0 kts 74°
2026-04-25 23:53 -23.43393 -46.48202 2474 ft 23 kts 74°
2026-04-25 23:54 -23.43273 -46.47759 2473 ft 96 kts 73°
2026-04-25 23:54 -23.43026 -46.46852 2474 ft 152 kts 73°
2026-04-25 23:54 -23.42684 -46.45601 2651 ft 177 kts 72°
2026-04-25 23:54 -23.42343 -46.44351 3398 ft 173 kts 71°
2026-04-25 23:55 -23.41976 -46.43108 3822 ft 171 kts 71°
2026-04-25 23:55 -23.41594 -46.41826 3981 ft 188 kts 71°
2026-04-25 23:55 -23.41169 -46.40395 4139 ft 210 kts 71°
2026-04-25 23:55 -23.40701 -46.38804 4284 ft 232 kts 71°
2026-04-25 23:56 -23.40221 -46.37056 4493 ft 252 kts 79°
2026-04-25 23:56 -23.40298 -46.35090 4735 ft 273 kts 108°
2026-04-25 23:56 -23.40945 -46.33098 5244 ft 283 kts 110°
2026-04-25 23:56 -23.41621 -46.31083 5941 ft 287 kts 111°
2026-04-25 23:57 -23.42304 -46.29027 6632 ft 292 kts 110°
2026-04-25 23:57 -23.43098 -46.26991 7306 ft 293 kts 125°
2026-04-25 23:57 -23.44550 -46.25513 7981 ft 291 kts 155°
2026-04-25 23:57 -23.46453 -46.24826 8693 ft 289 kts 175°
2026-04-25 23:58 -23.48438 -46.24954 9408 ft 287 kts 198°
2026-04-25 23:58 -23.50213 -46.25910 10105 ft 286 kts 220°
2026-04-25 23:58 -23.51656 -46.27456 10468 ft 301 kts 227°
2026-04-25 23:58 -23.53141 -46.29182 10600 ft 324 kts 227°
2026-04-25 23:59 -23.54717 -46.31026 10860 ft 339 kts 227°
2026-04-25 23:59 -23.56338 -46.32922 11404 ft 344 kts 227°
2026-04-25 23:59 -23.57981 -46.34835 12024 ft 347 kts 227°
2026-04-25 23:59 -23.59643 -46.36763 12645 ft 350 kts 227°
2026-04-26 00:00 -23.61316 -46.38703 13287 ft 352 kts 227°
2026-04-26 00:00 -23.63001 -46.40656 13895 ft 354 kts 227°
2026-04-26 00:00 -23.64697 -46.42620 14440 ft 357 kts 227°
2026-04-26 00:00 -23.66402 -46.44596 14981 ft 359 kts 228°
2026-04-26 00:01 -23.68117 -46.46585 15503 ft 361 kts 228°
2026-04-26 00:01 -23.69846 -46.48588 16011 ft 364 kts 229°
2026-04-26 00:01 -23.71587 -46.50610 16524 ft 366 kts 229°
2026-04-26 00:01 -23.73334 -46.52640 17037 ft 368 kts 229°
2026-04-26 00:02 -23.75094 -46.54688 17532 ft 371 kts 230°
2026-04-26 00:02 -23.76861 -46.56747 18030 ft 373 kts 230°
2026-04-26 00:02 -23.78641 -46.58818 18503 ft 375 kts 230°
2026-04-26 00:02 -23.80409 -46.60874 18914 ft 377 kts 230°
2026-04-26 00:03 -23.82209 -46.62964 19323 ft 379 kts 230°
2026-04-26 00:03 -23.85644 -46.66953 20085 ft 383 kts 230°
2026-04-26 00:03 -23.93014 -46.75540 21660 ft 391 kts 230°
2026-04-26 00:03 -24.00533 -46.84320 23124 ft 399 kts 230°
2026-04-26 00:04 -24.08170 -46.93282 24302 ft 405 kts 230°
2026-04-26 00:04 -24.15913 -47.02347 25417 ft 409 kts 230°
2026-04-26 00:04 -24.23687 -47.11483 26509 ft 411 kts 231°
2026-04-26 00:04 -24.32968 -47.19096 27457 ft 424 kts 217°
2026-04-26 00:05 -24.42965 -47.26076 28356 ft 429 kts 218°
2026-04-26 00:05 -24.53082 -47.33117 29250 ft 431 kts 218°
2026-04-26 00:05 -24.63233 -47.40202 30037 ft 434 kts 218°
2026-04-26 00:05 -24.73398 -47.47287 30915 ft 430 kts 218°
2026-04-26 00:06 -24.83474 -47.54343 31774 ft 428 kts 218°
2026-04-26 00:06 -24.93475 -47.61372 32693 ft 425 kts 219°
2026-04-26 00:06 -25.03435 -47.68388 33569 ft 423 kts 218°
2026-04-26 00:06 -25.13333 -47.75352 34416 ft 422 kts 219°
2026-04-26 00:07 -25.23208 -47.82308 35148 ft 420 kts 219°
2026-04-26 00:07 -25.33019 -47.89251 35785 ft 418 kts 219°
2026-04-26 00:07 -25.42807 -47.96200 35993 ft 414 kts 220°
2026-04-26 00:08 -25.62226 -48.10006 35975 ft 415 kts 220°
2026-04-26 00:08 -25.71926 -48.16917 35834 ft 418 kts 220°
2026-04-26 00:08 -25.81624 -48.23810 35825 ft 414 kts 220°
2026-04-26 00:08 -25.91246 -48.30678 35930 ft 409 kts 220°
2026-04-26 00:09 -26.00843 -48.37540 36050 ft 407 kts 220°
2026-04-26 00:09 -26.20063 -48.51369 35921 ft 413 kts 220°
2026-04-26 00:10 -26.39245 -48.65181 35895 ft 407 kts 221°
2026-04-26 00:10 -26.48767 -48.72083 36048 ft 404 kts 221°
2026-04-26 00:10 -26.58233 -48.79076 36059 ft 407 kts 221°
2026-04-26 00:10 -26.67581 -48.85990 35958 ft 411 kts 222°
2026-04-26 00:11 -26.77098 -48.92929 35856 ft 412 kts 221°
2026-04-26 00:11 -26.96075 -49.06808 35983 ft 404 kts 221°
2026-04-26 00:11 -27.05548 -49.13776 36097 ft 405 kts 222°
2026-04-26 00:12 -27.15024 -49.20749 36020 ft 408 kts 221°
2026-04-26 00:12 -27.24523 -49.27752 35882 ft 412 kts 221°
2026-04-26 00:12 -27.34008 -49.34766 35818 ft 407 kts 222°
2026-04-26 00:12 -27.43404 -49.41711 35994 ft 404 kts 222°
2026-04-26 00:13 -27.52818 -49.48710 36101 ft 402 kts 222°
2026-04-26 00:13 -27.69616 -49.64873 36045 ft 399 kts 230°
2026-04-26 00:13 -27.77846 -49.73164 35933 ft 399 kts 230°
2026-04-26 00:14 -27.86071 -49.81451 35944 ft 394 kts 230°
2026-04-26 00:14 -27.94244 -49.89698 36132 ft 390 kts 231°
2026-04-26 00:14 -28.02349 -49.97900 36137 ft 386 kts 231°
2026-04-26 00:15 -28.18491 -50.14310 35986 ft 393 kts 231°
2026-04-26 00:15 -28.34576 -50.30724 36038 ft 380 kts 231°
2026-04-26 00:16 -28.50403 -50.46929 36052 ft 385 kts 231°
2026-04-26 00:16 -28.58320 -50.55056 35916 ft 386 kts 231°
2026-04-26 00:16 -28.66208 -50.63182 35956 ft 382 kts 232°
2026-04-26 00:16 -28.74028 -50.71276 36079 ft 377 kts 233°
2026-04-26 00:17 -28.81845 -50.79367 36118 ft 378 kts 232°
2026-04-26 00:17 -28.97398 -50.95507 35897 ft 380 kts 232°
2026-04-26 00:18 -29.12873 -51.11599 36049 ft 373 kts 233°
2026-04-26 00:18 -29.28726 -51.27378 36004 ft 381 kts 230°
2026-04-26 00:19 -29.44895 -51.42767 36012 ft 375 kts 231°
2026-04-26 00:19 -29.60982 -51.58195 36028 ft 377 kts 231°
2026-04-26 00:20 -29.76958 -51.73569 35992 ft 373 kts 232°
2026-04-26 00:20 -29.92927 -51.89006 36005 ft 374 kts 232°
2026-04-26 00:21 -30.08789 -52.04399 36007 ft 368 kts 233°
2026-04-26 00:21 -30.24481 -52.19699 35958 ft 372 kts 233°
2026-04-26 00:22 -30.40045 -52.34945 35925 ft 366 kts 233°
2026-04-26 00:22 -30.47866 -52.42603 36061 ft 364 kts 233°
2026-04-26 00:22 -30.55649 -52.50268 36074 ft 366 kts 233°
2026-04-26 00:22 -30.63424 -52.57960 35934 ft 371 kts 234°
2026-04-26 00:23 -30.71226 -52.65672 35863 ft 370 kts 234°
2026-04-26 00:23 -30.86695 -52.81021 36058 ft 362 kts 234°
2026-04-26 00:24 -31.02191 -52.96472 35998 ft 370 kts 235°
2026-04-26 00:24 -31.17671 -53.11961 35947 ft 366 kts 235°
2026-04-26 00:25 -31.33201 -53.27579 36024 ft 369 kts 235°
2026-04-26 00:25 -31.42918 -53.37400 35961 ft 365 kts 235°
2026-04-26 00:26 -31.46763 -53.41290 35977 ft 366 kts 235°
2026-04-26 00:26 -31.49966 -53.44528 35984 ft 366 kts 235°
2026-04-26 00:27 -31.53832 -53.48437 35630 ft 366 kts 235°
2026-04-26 00:27 -31.55764 -53.50392 35261 ft 366 kts 235°
2026-04-26 00:27 -31.57694 -53.52350 34905 ft 367 kts 235°
2026-04-26 00:27 -31.59630 -53.54320 34556 ft 369 kts 235°
2026-04-26 00:28 -31.61571 -53.56297 34208 ft 371 kts 235°
2026-04-26 00:28 -31.63525 -53.58284 33984 ft 372 kts 235°
2026-04-26 00:28 -31.65485 -53.60278 33988 ft 374 kts 235°
2026-04-26 00:29 -31.69421 -53.64282 34049 ft 374 kts 235°
2026-04-26 00:29 -31.73351 -53.68278 33991 ft 373 kts 235°
2026-04-26 00:30 -31.77273 -53.72283 33985 ft 373 kts 235°
2026-04-26 00:30 -31.81167 -53.76266 34006 ft 373 kts 235°
2026-04-26 00:31 -31.85087 -53.80274 33998 ft 373 kts 235°
2026-04-26 00:31 -31.89000 -53.84285 34001 ft 373 kts 235°
2026-04-26 00:32 -31.92916 -53.88303 33998 ft 373 kts 235°
2026-04-26 00:32 -31.99126 -53.94030 33988 ft 385 kts 229°
2026-04-26 00:33 -32.03575 -53.97569 34025 ft 386 kts 229°
2026-04-26 00:33 -32.08032 -54.01121 33999 ft 387 kts 228°
2026-04-26 00:34 -32.12450 -54.04661 33982 ft 387 kts 228°
2026-04-26 00:34 -32.16904 -54.08240 33979 ft 387 kts 228°
2026-04-26 00:35 -32.21361 -54.11817 33977 ft 388 kts 228°
2026-04-26 00:35 -32.25818 -54.15398 33975 ft 387 kts 228°
2026-04-26 00:36 -32.30277 -54.18987 33974 ft 387 kts 228°
2026-04-26 00:36 -32.34737 -54.22570 34018 ft 389 kts 227°
2026-04-26 00:37 -32.39388 -54.25955 34014 ft 395 kts 224°
2026-04-26 00:37 -32.44162 -54.29210 34006 ft 396 kts 224°
2026-04-26 00:38 -32.48930 -54.32478 33999 ft 395 kts 224°
2026-04-26 00:38 -32.53647 -54.35786 33998 ft 394 kts 225°
2026-04-26 00:39 -32.58356 -54.39115 33994 ft 394 kts 225°
2026-04-26 00:39 -32.63028 -54.42420 34012 ft 394 kts 225°
2026-04-26 00:40 -32.67739 -54.45756 34002 ft 394 kts 225°
2026-04-26 00:40 -32.72454 -54.49085 33992 ft 394 kts 224°
2026-04-26 00:41 -32.77171 -54.52410 34005 ft 394 kts 225°
2026-04-26 00:41 -32.81879 -54.55746 34002 ft 394 kts 225°
2026-04-26 00:42 -32.86593 -54.59087 33993 ft 394 kts 224°
2026-04-26 00:42 -32.91297 -54.62430 34020 ft 394 kts 225°
2026-04-26 00:43 -32.96003 -54.65788 34006 ft 394 kts 225°
2026-04-26 00:43 -33.00715 -54.69145 33995 ft 394 kts 225°
2026-04-26 00:44 -33.05427 -54.72507 33990 ft 395 kts 225°
2026-04-26 00:44 -33.10143 -54.75872 34017 ft 395 kts 225°
2026-04-26 00:45 -33.14861 -54.79244 33998 ft 395 kts 225°
2026-04-26 00:45 -33.19580 -54.82629 34022 ft 397 kts 224°
2026-04-26 00:46 -33.24313 -54.86024 33979 ft 397 kts 224°
2026-04-26 00:46 -33.29060 -54.89422 33969 ft 398 kts 224°
2026-04-26 00:47 -33.33806 -54.92830 33967 ft 398 kts 224°
2026-04-26 00:47 -33.38557 -54.96252 33967 ft 398 kts 224°
2026-04-26 00:48 -33.43302 -54.99672 33965 ft 398 kts 224°
2026-04-26 00:48 -33.48010 -55.03083 33974 ft 398 kts 224°
2026-04-26 00:49 -33.52765 -55.06521 33961 ft 400 kts 224°
2026-04-26 00:49 -33.57537 -55.09964 33958 ft 401 kts 224°
2026-04-26 00:50 -33.62312 -55.13415 33959 ft 401 kts 224°
2026-04-26 00:50 -33.67103 -55.16883 33613 ft 406 kts 224°
2026-04-26 00:51 -33.69519 -55.18640 32473 ft 405 kts 224°
2026-04-26 00:51 -33.71929 -55.20387 31389 ft 403 kts 224°
2026-04-26 00:51 -33.74314 -55.22113 30361 ft 398 kts 224°
2026-04-26 00:51 -33.76673 -55.23818 29284 ft 395 kts 223°
2026-04-26 00:52 -33.79027 -55.25534 28587 ft 394 kts 223°
2026-04-26 00:52 -33.81353 -55.27224 28112 ft 388 kts 223°
2026-04-26 00:52 -33.83651 -55.28893 27588 ft 384 kts 223°
2026-04-26 00:52 -33.85923 -55.30546 27094 ft 380 kts 223°
2026-04-26 00:53 -33.88179 -55.32188 26600 ft 378 kts 222°
2026-04-26 00:53 -33.90419 -55.33822 26117 ft 376 kts 222°
2026-04-26 00:53 -33.92649 -55.35455 25640 ft 374 kts 222°
2026-04-26 00:53 -33.94867 -55.37080 25171 ft 372 kts 221°
2026-04-26 00:54 -33.97072 -55.38695 24717 ft 370 kts 221°
2026-04-26 00:54 -33.99270 -55.40303 24265 ft 369 kts 221°
2026-04-26 00:54 -34.01462 -55.41908 23828 ft 368 kts 221°
2026-04-26 00:54 -34.03614 -55.43483 23398 ft 366 kts 220°
2026-04-26 00:55 -34.05784 -55.45072 22924 ft 363 kts 220°
2026-04-26 00:55 -34.07938 -55.46650 22506 ft 361 kts 220°
2026-04-26 00:55 -34.10080 -55.48221 22080 ft 359 kts 219°
2026-04-26 00:55 -34.12204 -55.49804 21738 ft 357 kts 220°
2026-04-26 00:56 -34.14285 -55.51428 21478 ft 355 kts 221°
2026-04-26 00:56 -34.16340 -55.53080 21037 ft 355 kts 221°
2026-04-26 00:56 -34.18417 -55.54776 20233 ft 363 kts 221°
2026-04-26 00:56 -34.20518 -55.56495 19354 ft 366 kts 220°
2026-04-26 00:57 -34.22623 -55.58209 18434 ft 363 kts 219°
2026-04-26 00:57 -34.24717 -55.59898 17420 ft 360 kts 219°
2026-04-26 00:57 -34.26799 -55.61567 16427 ft 357 kts 218°
2026-04-26 00:57 -34.28864 -55.63218 15467 ft 355 kts 217°
2026-04-26 00:58 -34.30906 -55.64854 14551 ft 352 kts 217°
2026-04-26 00:58 -34.32941 -55.66490 13661 ft 349 kts 217°
2026-04-26 00:58 -34.34949 -55.68108 12688 ft 345 kts 217°
2026-04-26 00:58 -34.36930 -55.69706 11763 ft 341 kts 217°
2026-04-26 00:59 -34.38889 -55.71288 10891 ft 336 kts 216°
2026-04-26 00:59 -34.40775 -55.72807 10656 ft 313 kts 216°
2026-04-26 00:59 -34.42529 -55.74217 10405 ft 294 kts 217°
2026-04-26 00:59 -34.44191 -55.75555 9887 ft 287 kts 217°
2026-04-26 01:00 -34.45856 -55.76904 9550 ft 286 kts 217°
2026-04-26 01:00 -34.47514 -55.78249 9124 ft 285 kts 216°
2026-04-26 01:00 -34.49174 -55.79596 8599 ft 289 kts 216°
2026-04-26 01:00 -34.50801 -55.80913 8325 ft 283 kts 216°
2026-04-26 01:01 -34.52432 -55.82233 7928 ft 281 kts 216°
2026-04-26 01:01 -34.54053 -55.83545 7542 ft 279 kts 216°
2026-04-26 01:01 -34.55661 -55.84851 7164 ft 277 kts 216°
2026-04-26 01:01 -34.57256 -55.86148 6786 ft 275 kts 215°
2026-04-26 01:02 -34.58841 -55.87436 6405 ft 273 kts 215°
2026-04-26 01:02 -34.60414 -55.88715 6001 ft 271 kts 215°
2026-04-26 01:02 -34.61977 -55.89987 5537 ft 268 kts 214°
2026-04-26 01:02 -34.63659 -55.90930 4845 ft 268 kts 194°
2026-04-26 01:03 -34.65518 -55.90978 4167 ft 269 kts 169°
2026-04-26 01:03 -34.67187 -55.90116 3882 ft 256 kts 146°
2026-04-26 01:03 -34.68588 -55.88858 3750 ft 245 kts 145°
2026-04-26 01:03 -34.70073 -55.87845 3249 ft 247 kts 163°
2026-04-26 01:04 -34.71700 -55.87504 3056 ft 231 kts 182°
2026-04-26 01:04 -34.73237 -55.87771 2900 ft 217 kts 199°
2026-04-26 01:04 -34.74562 -55.88516 2658 ft 205 kts 215°
2026-04-26 01:04 -34.75605 -55.89624 2421 ft 196 kts 231°
2026-04-26 01:05 -34.76405 -55.90905 2177 ft 184 kts 234°
2026-04-26 01:05 -34.77143 -55.92111 1943 ft 172 kts 234°
2026-04-26 01:05 -34.77833 -55.93238 1736 ft 158 kts 234°
2026-04-26 01:05 -34.78471 -55.94282 1517 ft 150 kts 234°
2026-04-26 01:06 -34.79088 -55.95292 1326 ft 147 kts 234°
2026-04-26 01:06 -34.79696 -55.96288 1128 ft 146 kts 234°
2026-04-26 01:06 -34.80300 -55.97278 934 ft 146 kts 234°
2026-04-26 01:06 -34.80903 -55.98265 749 ft 145 kts 234°
2026-04-26 01:07 -34.81505 -55.99251 563 ft 145 kts 234°
2026-04-26 01:07 -34.82104 -56.00233 375 ft 144 kts 234°
2026-04-26 01:07 -34.82702 -56.01213 191 ft 144 kts 234°
2026-04-26 01:07 -34.83266 -56.02138 91 ft 123 kts 233°
2026-04-26 01:08 -34.83676 -56.02813 74 ft 80 kts 233°
2026-04-26 01:08 -34.83947 -56.03258 67 ft 52 kts 233°
2026-04-26 01:08 -34.84117 -56.03531 65 ft 36 kts 233°
2026-04-26 01:08 -34.84220 -56.03653 59 ft 11 kts 155°
2026-04-26 01:09 -34.84238 -56.03606 63 ft 4 kts 60°
2026-04-26 01:09 -34.84236 -56.03586 64 ft 0 kts 76°
2026-04-26 01:10 -34.84224 -56.03554 59 ft 5 kts 66°
2026-04-26 01:10 -34.84210 -56.03520 64 ft 4 kts 60°
2026-04-26 01:10 -34.84195 -56.03488 67 ft 7 kts 60°
2026-04-26 01:10 -34.84158 -56.03404 59 ft 15 kts 62°
2026-04-26 01:11 -34.84091 -56.03257 64 ft 22 kts 62°
2026-04-26 01:11 -34.84019 -56.03081 57 ft 24 kts 69°
2026-04-26 01:11 -34.84013 -56.02878 69 ft 24 kts 89°
2026-04-26 01:11 -34.83963 -56.02702 71 ft 22 kts 64°
2026-04-26 01:12 -34.83946 -56.02519 76 ft 22 kts 89°
2026-04-26 01:12 -34.83949 -56.02329 78 ft 23 kts 90°
2026-04-26 01:12 -34.83879 -56.02210 83 ft 19 kts
2026-04-26 01:12 -34.83734 -56.02165 86 ft 23 kts 47°
2026-04-26 01:13 -34.83642 -56.02018 89 ft 21 kts 55°
2026-04-26 01:13 -34.83656 -56.01879 92 ft 13 kts 137°
2026-04-26 01:13 -34.83676 -56.01830 91 ft 0 kts 115°